THORAD AGENA D DEB, 4657

Orbit data source: Space-Track

THORAD AGENA D DEB, 4657 is space debris in SSO originally from a launch on Wed, 08 Apr 1970 UTC launched from the Air Force Western Test Range (AFWTR). Debris objects in space refer to the collection of defunct objects orbiting the Earth. Examples of debris include non-operational satellites, rocket bodies, and fragments generated from explosions, collisions, or faulty payload assembly.

Loading next visibility...
Identifier
4657, 1970-025AR
Orbit
SSO
Country
Flag of USUS
Related business
Manufacturer
Unknown
Mission
Spacecraft
Bus & Motor
Unknown
Mass
Unknown
Launch date (UTC)
1970-04-08 (56 years ago)
Launch vehicle
Unknown
Launch site
Air Force Western Test Range (AFWTR)
Object type
Payload
Rocket body
Debris
Shape & HBR
Unknown shape, 1.1 m
Radar Cross Section
Large (>1 m²)

Expand to show TLE details & history
Last TLE update: 2 days ago

TLE from 2 days ago
0 THORAD AGENA D DEB
1  4657U 70025AR  26171.43492872  .00000328  00000-0  41521-3 0  9991
2  4657 100.1061  49.9659 0018031  52.1535 120.6657 13.71982545795169
Epoch: 2026-06-20T10:26Z
TLE epoch observation values (Epoch: 2026-06-20T10:26:17.841Z)
Latitude
6.82259°
Longitude
165.95754°
Altitude
1,001.435 km
Speed
7.348 km/s
True Right ascension
15h 24m 43s
True Declination
6° 47' 01"
Sunlit
Object was in full shadow at epoch
Visualization orbit readout
Latitude
Unknown
Longitude
Unknown
Altitude
Unknown
Speed
Unknown
Apparent Right ascension
Unknown
Apparent Declination
Unknown
Sunlit
N/A
Visualization observer readout
Local Sidereal Time
01:06:06
Azimuth
Unknown
Elevation
Unknown
Doppler factor
Unknown
Orbital elements
Apogee altitude
1,003.041 km
Perigee altitude
976.471 km
Semi-major axis
7,367.893 km
Eccentricity
0.0018
Inclination
100.1061°
RAAN
49.9659°
Arg. of periapsis
52.1535°
True anomaly
120.84322°
Mean anomaly
120.6657°
Eccentric anomaly
120.75448°
Mean motion
3.43185 °/min
Orbital period
104.9 mins
BSTAR
0.00041521
Loading maneuver chart data...
Computing Atmospheric mass density...

Documentation

Showing up to 5 results
|